sat.trackr.live / text

‹ back to catalog

STARLINK-32020

NORAD 60201 · 2024-124U

PAYLOAD ACTIVE UNKNOWN

§ Identity

Operator
Country
US
Launch date
2024-07-03
Launch site
AFETR
Launch vehicle
Mass (kg)
RCS (m²)

Purposes: comms

External: N2YO · Heavens-Above · Gunter

§ Orbital elements

Epoch: 2026-09-21T21:04:45.640128Z

Period
94.01 min
Inclination
53.1587°
Eccentricity
0.0001244
Mean motion
15.31697246 rev/d
Perigee alt
469.9 km
Apogee alt
471.6 km
Semi-major
6,848.9 km
B*
3.8281e-6
RAAN
129.7563°
Arg perigee
82.2170°
Mean anomaly
277.8972°
Rev number
12,435

§ Raw data

STARLINK-320201 60201U 24124U   26264.87830602 -.00000246  00000+0  38281-5 0  99952 60201  53.1587 129.7563 0001244  82.2170 277.8972 15.31697246124355

JSON: /api/v1/satellites/60201 · /tle

For live sub-satellite position, see the globe view (requires WebGL).

§ Visibility from observer

Set your observer location to see the next 7 days of passes ≥ 10°. The values pass through the URL so the page stays shareable.

No JS? Fill the form by hand. The geolocation button needs JavaScript.